AMC-3 (GE-3)

导读

AMC-3(原称GE-3)是由SES运营的通信卫星,于1997年9月4日发射升空。该卫星定点于地球静止轨道,主要覆盖北美地区,为广播电视、电信网络等提供稳定的信号传输服务。作为SES AMC系列卫星的一员,它在服役期间承担了大量多媒体通信业务,助力区域通信基础设施建设,是民用通信卫星领域的重要成员,服役多年为卫星通信产业发展提供了有力支撑。

基本信息
目录编号:
24936
目录名称:
AMC-3 (GE-3)
国际标识:
1997-050A
轨道中心:
EARTH
卫星名称:
AMC-3 (GE-3)
卫星全名:
--
卫星状态:
在轨 (已飞行10508 天)
发射日期:
1997-09-04 UTC
国别 :
(SES)
星等 :
--
轨道信息
数据来源 国际轨道数据
星历时间: 2026-06-05T19:15:42+0800
轨道信息已过期7天
半长轴: 42210.794km
偏心率: 0.0010465
轨道倾角: 8.117°
近地点辐角 111.222°
升交点赤经 64.220°
平近点角 173.918°
近地点: 35788.483km
远地点: 35876.831km
周期: 1438.451分钟
每日圈数: 1.001077
详细信息
使用方式:
暂无
2D轨道图
3D轨道图
轨道高度分析图
轨道倾角分析图
轨道综合分析图
查看轨道综合分析图